This demonstration page uses our WeatherBlox Daily Observations layout. Learn more.

Hourly Observations for June 21, 2020

Temp ( °F °C ) Dew Point ( °F °C ) Humidity (%) Winds ( mph kmh ) Pressure ( in mb ) Visibility ( mi km ) Precip ( " mm )
12:15 am 00:15 Clear 70 21.2 63 17.2 78 78 S 6 9 29.82 1010 10 16.0934 0 0
12:35 am 00:35 Clear 71 21.4 63 17.4 78 78 S 9 15 29.82 1010 10 16.0934 0 0
12:55 am 00:55 Clear 69 20.7 64 17.5 82 82 SSW 6 9 29.81 1010 10 16.0934 0 0
1:15 am 01:15 Clear 70 20.9 64 17.5 81 81 S 7 11 29.81 1009 10 16.0934 0 0
1:35 am 01:35 Clear 69 20.8 63 17.2 80 80 SW 3 6 29.82 1010 10 16.0934 0 0
1:55 am 01:55 Clear 70 21.1 63 17.3 79 79 S 9 15 29.81 1009 10 16.0934 0 0
2:15 am 02:15 Clear 69 20.3 63 17.4 84 84 SSW 7 11 29.82 1010 10 16.0934 0 0
2:35 am 02:35 Clear 69 20.4 63 17.3 82 82 SSW 10 17 29.8 1009 10 16.0934 0 0
2:55 am 02:55 Clear 69 20.3 63 17.3 83 83 SSW 9 15 29.81 1009 10 16.0934 0 0
3:15 am 03:15 Clear 68 20 63 17.4 85 85 SSW 7 11 29.8 1009 10 16.0934 0 0
3:35 am 03:35 Clear 67 19.5 63 17.4 88 88 S 5 7 29.81 1010 10 16.0934 0 0
3:55 am 03:55 Clear 67 19.2 63 17.4 89 89 S 5 7 29.81 1010 10 16.0934 0 0
4:15 am 04:15 Clear 66 19 64 17.5 91 91 S 7 11 29.81 1009 10 16.0934 0 0
4:35 am 04:35 Clear 66 19 63 17.3 90 90 S 7 11 29.81 1009 10 16.0934 0 0
4:55 am 04:55 Clear 66 18.8 63 17.3 91 91 S 6 9 29.81 1009 10 16.0934 0 0
5:15 am 05:15 Clear 65 18.6 63 17.2 92 92 S 7 11 29.8 1009 10 16.0934 0 0
5:35 am 05:35 Clear 66 18.7 63 17.1 90 90 S 6 9 29.8 1009 10 16.0934 0 0
5:55 am 05:55 Clear 65 18.6 62 16.8 89 89 S 8 13 29.8 1009 10 16.0934 0 0
6:15 am 06:15 Sunny 65 18.6 62 16.5 88 88 SSW 9 15 29.8 1009 10 16.0934 0 0
6:35 am 06:35 Sunny 66 19 62 16.4 85 85 S 9 15 29.8 1009 10 16.0934 0 0
6:55 am 06:55 Sunny 66 19.1 62 16.5 85 85 S 9 15 29.79 1009 10 16.0934 0 0
7:15 am 07:15 Sunny 67 19.6 62 16.5 82 82 S 9 15 29.79 1009 10 16.0934 0 0
7:35 am 07:35 Sunny 68 20 62 16.6 81 81 S 12 19 29.79 1009 10 16.0934 0 0
7:55 am 07:55 Sunny 69 20.6 63 17 80 80 S 15 24 29.78 1009 10 16.0934 0 0
8:15 am 08:15 Sunny 70 21.2 63 17.3 79 79 SSW 16 26 29.78 1008 10 16.0934 0 0
8:35 am 08:35 Sunny 72 22.2 64 17.6 75 75 SSW 16 26 29.77 1008 10 16.0934 0 0
8:55 am 08:55 Partly Cloudy 72 22.2 64 17.6 75 75 S 16 26 29.76 1008 10 16.0934 0 0
9:15 am 09:15 Sunny 73 22.5 64 17.6 74 74 S 16 26 29.76 1008 10 16.0934 0 0
9:35 am 09:35 Sunny 74 23.4 64 18 72 72 S 16 26 29.74 1007 10 16.0934 0 0
9:55 am 09:55 Sunny 75 23.9 65 18.1 70 70 S 20 31 29.74 1007 10 16.0934 0 0
10:15 am 10:15 Sunny 76 24.4 65 18.5 70 70 S 17 28 29.72 1007 10 16.0934 0 0
10:35 am 10:35 Partly Cloudy 77 25 66 19 69 69 SSW 14 22 29.72 1006 10 16.0934 0 0
10:55 am 10:55 Partly Cloudy 78 25.4 66 19.1 68 68 SSW 12 19 29.72 1007 10 16.0934 0 0
11:15 am 11:15 Mostly Cloudy 77 25 66 19 69 69 S 12 19 29.73 1007 10 16.0934 0 0
11:35 am 11:35 Cloudy 77 24.9 67 19.2 71 71 S 9 15 29.74 1007 10 16.0934 0 0
11:55 am 11:55 Cloudy 78 25.3 67 19.4 70 70 S 7 11 29.74 1007 10 16.0934 0 0
12:15 pm 12:15 Cloudy 78 25.5 67 19.6 70 70 S 12 19 29.75 1008 10 16.0934 0 0
12:35 pm 12:35 Mostly Cloudy 76 24.5 62 16.8 62 62 SSE 14 22 29.76 1008 10 16.0934 0 0
12:55 pm 12:55 Partly Cloudy 76 24.6 62 16.5 61 61 SSE 16 26 29.75 1007 10 16.0934 0 0
1:15 pm 13:15 Sunny 76 24.5 62 16.7 62 62 SSE 14 22 29.75 1007 10 16.0934 0 0
1:35 pm 13:35 Sunny 78 25.8 61 16 55 55 SSE 17 28 29.73 1007 10 16.0934 0 0
1:55 pm 13:55 Sunny 78 25.7 61 16.1 55 55 SSE 18 30 29.73 1007 10 16.0934 0 0
2:15 pm 14:15 Sunny 80 26.7 62 16.9 55 55 S 17 28 29.71 1006 10 16.0934 0 0
2:35 pm 14:35 Sunny 81 27.3 63 17.2 54 54 SSE 16 26 29.7 1006 10 16.0934 0 0
2:55 pm 14:55 Sunny 81 27.1 62 16.7 53 53 S 16 26 29.69 1005 10 16.0934 0 0
3:15 pm 15:15 Sunny 81 27.4 63 17.2 54 54 SSE 16 26 29.67 1005 10 16.0934 0 0
3:35 pm 15:35 Sunny 82 27.6 63 17.4 54 54 S 17 28 29.67 1005 10 16.0934 0 0
3:55 pm 15:55 Sunny 82 27.6 64 17.7 55 55 S 14 22 29.67 1005 10 16.0934 0 0
4:15 pm 16:15 Sunny 82 27.6 64 17.8 55 55 S 14 22 29.67 1005 10 16.0934 0 0
4:35 pm 16:35 Sunny 82 27.5 65 18.1 57 57 SSE 15 24 29.65 1004 10 16.0934 0 0
4:55 pm 16:55 Sunny 79 26.2 60 15.8 53 53 SSE 20 31 29.68 1005 10 16.0934 0 0
5:15 pm 17:15 Sunny 77 25 62 16.6 60 60 SSE 17 28 29.71 1006 10 16.0934 0 0
5:35 pm 17:35 Sunny 74 23.5 62 16.4 65 65 S 22 35 29.72 1006 10 16.0934 0 0
5:55 pm 17:55 Sunny 72 22.2 61 16 68 68 S 21 33 29.71 1006 10 16.0934 0 0
6:15 pm 18:15 Sunny 71 21.5 61 16 71 71 S 15 24 29.7 1006 10 16.0934 0 0
6:35 pm 18:35 Sunny 70 21 61 16.2 74 74 S 7 11 29.69 1005 10 16.0934 0 0
6:55 pm 18:55 Partly Cloudy 69 20.7 62 16.4 77 77 S 10 17 29.7 1006 10 16.0934 0 0
7:15 pm 19:15 Partly Cloudy 69 20.3 62 16.6 79 79 SSW 10 17 29.73 1007 10 16.0934 0 0
7:35 pm 19:35 Sunny with Light Rain 68 20 63 17.1 83 83 SW 7 11 29.74 1007 10 16.0934 0 0
7:55 pm 19:55 Partly Cloudy 68 20 63 17.3 85 85 SW 6 9 29.76 1008 10 16.0934 0 0
8:15 pm 20:15 Mostly Cloudy with Rain 68 20 63 17.4 85 85 WNW 10 17 29.8 1009 10 16.0934 0 0
8:35 pm 20:35 Mostly Cloudy with Nearby Thunderstorms 66 19 62 16.6 86 86 SW 17 28 29.8 1009 7 11.26538 0.08 2.032
8:55 pm 20:55 Partly Cloudy 66 18.9 62 16.8 88 88 S 13 20 29.79 1009 10 16.0934 0.08 2.032
9:15 pm 21:15 Clear 65 18.6 62 16.4 87 87 SW 9 15 29.77 1008 10 16.0934 0 0
9:35 pm 21:35 Clear 65 18.5 61 16.1 86 86 SW 10 17 29.78 1008 10 16.0934 0 0
9:55 pm 21:55 Clear 65 18.5 60 15.8 84 84 WSW 8 13 29.79 1009 10 16.0934 0 0
10:15 pm 22:15 Clear 65 18.6 61 16 85 85 WSW 7 11 29.79 1009 10 16.0934 0 0
10:35 pm 22:35 Clear 65 18.5 62 16.5 88 88 W 10 17 29.8 1009 10 16.0934 0 0
10:55 pm 22:55 Clear 66 18.8 62 16.5 87 87 W 6 9 29.81 1009 10 16.0934 0 0
11:15 pm 23:15 Clear 65 18.6 62 16.6 88 88 W 8 13 29.83 1010 10 16.0934 0 0
11:35 pm 23:35 Clear 65 18.3 62 16.6 90 90 W 9 15 29.82 1010 10 16.0934 0 0
11:55 pm 23:55 Clear 65 18.2 62 16.4 89 89 W 5 7 29.8 1009 10 16.0934 0 0

Powered by AerisWeather